Weather Roundup
Issued by NWS

Home | Current Version | Previous Version | Graphics & Text | Print | Product List | Glossary Off
Versions: 1 2 3 4 5 6 7 8 9 10 11 12 13 14 15 16 17 18 19 20 21 22 23 24 25 26 27 28 29 30 31 32 33 34 35 36 37 38 39 40 41 42 43 44 45 46 47 48 49 50

300
NZUS93 KARX 280759
HRRWXR

CURRENT HOURLY OBSERVATIONS ACROSS
MUCH OF THE UPPER MISSISSIPPI VALLEY
NATIONAL WEATHER SERVICE LA CROSSE WI
300 AM CDT SUN MAY 28 2017


...SOUTHEAST MINNESOTA...


CITY           SKY/WX    TMP DP  RH WIND       PRES   REMARKS
ROCHESTER      CLOUDY    57  51  80 SW9       29.83F
ROCHESTER/MAYO CLOUDY    59  49  69 SW8       29.82F
WINONA         MOCLDY    55  54  94 CALM      29.81S
AUSTIN         CLOUDY    55  48  76 CALM      29.83F
ALBERT LEA     CLOUDY    61  52  72 SW3       29.83F
DODGE CENTER   CLOUDY    55  48  76 SW7       29.82F
PRESTON        CLOUDY    56  48  75 W9        29.83F
OWATONNA       CLOUDY    55  48  76 S8        29.81F
FARIBAULT      CLOUDY    57  48  72 CALM      29.81F
$$

...ELSEWHERE IN MINNESOTA...


CITY           SKY/WX    TMP DP  RH WIND       PRES   REMARKS
MINNEAPOLIS    MOCLDY    61  48  62 SW7       29.78F
INTNL FALLS    MOCLDY    50  45  83 CALM      29.66F
DULUTH         PTCLDY    57  45  64 SW12      29.72F
RED WING       CLOUDY    55  52  88 CALM      29.79F
REDWOOD FALLS  CLEAR     58  47  66 SW13      29.77F
MANKATO        CLEAR     59  50  72 W12       29.81F
WORTHINGTON    CLEAR     55  49  80 SW14      29.84F
FAIRMONT       CLOUDY    57  52  83 W13       29.83F
$$

...SOUTHWEST WISCONSIN...


CITY           SKY/WX    TMP DP  RH WIND       PRES   REMARKS
LA CROSSE      CLOUDY    59  57  93 S6        29.81S
PRAIRIE DU CHI CLOUDY    59  57  91 W3        29.82S
BOSCOBEL       CLOUDY    60  57  89 CALM      29.83S
LONE ROCK      NOT AVBL
PLATTEVILLE    CLOUDY    61  60  97 N6        29.81F
FORT MC COY    CLOUDY    55  55  99 CALM      29.82F
MAUSTON-NEW LI LGT RAIN  58  55  88 CALM      29.81R
VIROQUA        CLOUDY    57  52  83 CALM      29.82F
WIS DELLS      CLOUDY    57  54  88 CALM      29.82S
$$

...ELSEWHERE IN WISCONSIN...


CITY           SKY/WX    TMP DP  RH WIND       PRES   REMARKS
MILWAUKEE      CLOUDY    61  55  81 S6        29.79F
MADISON        CLOUDY    61  55  81 N3        29.79F
GREEN BAY      CLOUDY    61  57  87 S3        29.78F
EAU CLAIRE     NOT AVBL
BLACK RVR FLS  CLOUDY    56  56 100 S3        29.80S FOG
MEDFORD        CLOUDY    54  50  88 CALM      29.79F
WAUSAU         CLOUDY    58  52  80 N5        29.77F
WIS RAPIDS     CLOUDY    56  55  97 S3        29.81S
MARSHFIELD     CLOUDY    55  52  89 SW5       29.79F
RICE LAKE      LGT RAIN  56  52  84 W3        29.81S
$$

...NORTHEAST IOWA...


CITY           SKY/WX    TMP DP  RH WIND       PRES   REMARKS
WATERLOO       PTCLDY    50  49  96 NW5       29.83F
DUBUQUE        CLOUDY    60  57  89 N6        29.80F
DECORAH        CLOUDY    54  52  94 S3        29.83S
MASON CITY     CLOUDY    57  50  77 W7        29.86S
CHARLES CITY   CLOUDY    57  57 100 W6        29.85S
OELWEIN        NOT AVBL
$$

...ELSEWHERE IN IOWA...


CITY           SKY/WX    TMP DP  RH WIND       PRES   REMARKS
DES MOINES     CLOUDY    58  55  90 W5        29.87F
IOWA CITY      PTCLDY    60  57  89 CALM      29.82S
FORT DODGE     MOCLDY    54  48  82 CALM      29.88R
MARSHALLTOWN   CLOUDY    54  53  97 NW5       29.85F
CEDAR RAPIDS   RAIN      59  59 100 NW10      29.81S
$$

...NORTHERN ILLINOIS...


CITY           SKY/WX    TMP DP  RH WIND       PRES   REMARKS
CHICAGO-OHARE  CLOUDY    60  52  74 CALM      29.78F
CHICAGO-MIDWAY CLOUDY    60  54  80 CALM      29.78F
MOLINE         FOG       61  58  90 W3        29.78S VSB 1
ROCKFORD       MOCLDY    62  58  86 CALM      29.80S
PEORIA         CLOUDY    64  62  93 CALM      29.77S
$$

NOTE: "FAIR" INDICATES FEW OR NO CLOUDS BELOW 12,000 FEET WITH NO
SIGNIFICANT WEATHER AND/OR OBSTRUCTIONS TO VISIBILITY. WIND
SPEEDS ARE IN MILES-PER-HOUR.




USA.gov is the U.S. government's official web portal to all federal, state and local government web resources and services.